period_start,C,m1,H,J0,J1,J2,J3,J4,J5,JA,JB,JC,JD,JJ,JK,JN,#
2017-08-07 00:04:54,0.00,0.70,0.00,24.52,28.62,31.65,13.85,46.21,1015.55,2027.08,3232.26,2889.05,3290.99,600.14,592.53,57.77,0000 0000 0000 0000 000000
2017-08-07 00:09:55,0.01,0.70,0.00,24.57,28.64,31.67,13.89,46.28,1015.26,2027.02,3231.98,2889.00,3290.58,599.93,592.10,57.82,0000 0000 0000 0000 000000
2017-08-07 00:14:56,0.03,0.70,0.00,24.61,28.67,31.69,13.82,46.29,1015.16,2027.01,3231.45,2888.68,3290.04,599.87,591.84,57.87,0000 0000 0000 0000 000000
2017-08-07 00:19:57,0.02,0.70,0.00,24.64,28.70,31.72,13.82,46.17,1015.15,2027.00,3231.00,2888.05,3289.95,599.81,591.71,57.92,0000 0000 0000 0000 000000
2017-08-07 00:24:58,0.02,0.70,0.00,24.67,28.72,31.75,13.85,46.30,1015.11,2027.00,3230.58,2887.99,3289.24,599.63,591.43,57.97,0000 0000 0000 0000 000000
2017-08-07 00:30:00,0.02,0.70,0.00,24.71,28.76,31.78,13.80,46.17,1015.04,2027.00,3230.03,2887.67,3289.00,599.81,591.55,58.02,0000 0000 0000 0000 000000
2017-08-07 00:35:01,0.02,0.71,0.00,24.74,28.78,31.80,13.84,46.30,1014.78,2026.99,3229.66,2887.07,3288.75,600.04,591.46,58.07,0000 0000 0000 0000 000000
2017-08-07 00:40:02,0.01,0.71,0.00,24.79,28.81,31.82,13.85,46.31,1014.68,2026.94,3229.02,2886.93,3288.04,599.90,591.23,58.12,0000 0000 0000 0000 000000
2017-08-07 00:45:03,0.00,0.71,0.00,24.83,28.85,31.86,13.82,46.49,1014.66,2026.67,3228.49,2886.17,3287.73,600.00,591.33,58.17,0000 0000 0000 0000 000000
2017-08-07 00:50:05,-0.02,0.71,0.00,24.87,28.88,31.89,13.81,46.40,1014.66,2026.29,3228.01,2885.99,3287.05,599.76,590.92,58.22,0000 0000 0000 0000 000000
2017-08-07 00:55:06,0.02,0.71,0.00,24.92,28.91,31.90,13.81,46.31,1014.62,2026.02,3227.33,2885.58,3286.68,599.83,590.95,58.27,0000 0000 0000 0000 000000
2017-08-07 01:00:07,0.08,0.71,0.00,24.96,28.94,31.91,13.81,46.27,1014.58,2026.00,3226.49,2884.48,3285.48,600.06,591.01,58.33,0000 0000 0000 0000 000000
2017-08-07 01:05:09,0.18,0.72,0.00,25.01,28.98,31.95,13.85,46.38,1014.43,2026.00,3223.46,2880.82,3281.66,599.76,590.51,58.38,0000 0000 0000 0000 000000
2017-08-07 01:10:10,0.05,0.72,0.00,25.05,29.01,32.00,13.81,46.46,1014.18,2025.97,3222.14,2879.92,3280.51,600.14,590.65,58.43,0000 0000 0000 0000 000000
2017-08-07 01:15:11,-0.09,0.72,0.00,25.10,29.05,32.03,13.75,46.23,1014.18,2025.75,3223.01,2881.28,3281.85,599.85,590.30,58.48,0000 0000 0000 0000 000000
2017-08-07 01:20:13,0.07,0.72,0.00,25.15,29.08,32.06,13.77,46.19,1014.18,2025.24,3221.91,2880.35,3280.72,599.82,590.14,58.53,0000 0000 0000 0000 000000
2017-08-07 01:25:14,0.01,0.72,0.00,25.21,29.12,32.10,13.79,46.23,1014.17,2025.04,3220.50,2878.99,3279.16,600.15,590.35,58.58,0000 0000 0000 0000 000000
2017-08-07 01:30:16,-0.02,0.72,0.00,25.25,29.16,32.15,13.81,46.37,1014.12,2025.00,3220.09,2878.88,3279.15,599.75,589.71,58.63,0000 0000 0000 0000 000000
2017-08-07 01:35:17,0.14,0.73,0.00,25.30,29.20,32.16,13.76,46.36,1014.09,2025.00,3218.79,2877.97,3277.59,599.87,589.83,58.68,0000 0000 0000 0000 000000
2017-08-07 01:40:18,-0.05,0.73,0.00,25.35,29.24,32.21,13.83,46.31,1014.12,2024.98,3218.30,2877.83,3277.47,600.38,590.17,58.73,0000 0000 0000 0000 000000
2017-08-07 01:45:19,0.03,0.73,0.00,25.40,29.28,32.23,13.74,46.27,1014.16,2024.93,3217.70,2877.83,3277.55,599.70,589.63,58.78,0000 0000 0000 0000 000000
2017-08-07 01:50:21,0.21,0.74,0.00,25.44,29.32,32.24,13.78,46.25,1014.16,2024.53,3214.39,2873.99,3273.23,600.04,589.78,58.83,0000 0000 0000 0000 000000
2017-08-07 01:55:22,-0.06,0.74,0.00,25.49,29.36,32.33,13.86,46.17,1014.16,2024.13,3213.19,2873.90,3272.74,600.20,589.85,58.88,0000 0000 0000 0000 000000
2017-08-07 02:00:24,0.04,0.74,0.00,25.54,29.40,32.40,13.83,46.32,1014.08,2024.01,3212.41,2873.89,3272.46,599.83,589.31,58.93,0000 0000 0000 0000 000000
2017-08-07 02:05:25,0.07,0.74,0.00,25.58,29.45,32.38,13.71,46.04,1013.96,2024.00,3211.06,2873.32,3271.30,599.88,589.17,58.98,0000 0000 0000 0000 000000
2017-08-07 02:10:27,0.06,0.74,0.00,25.63,29.49,32.45,13.80,46.12,1013.90,2023.99,3209.74,2872.56,3270.33,599.88,589.09,59.03,0000 0000 0000 0000 000000
2017-08-07 02:15:28,0.04,0.75,0.00,25.70,29.53,32.49,13.84,46.32,1013.87,2023.91,3208.45,2871.89,3269.29,600.22,589.28,59.08,0000 0000 0000 0000 000000
2017-08-07 02:20:29,0.00,0.75,0.00,25.75,29.57,32.47,13.83,46.17,1013.83,2023.45,3207.24,2870.99,3268.27,600.40,589.26,59.13,0000 0000 0000 0000 000000
2017-08-07 02:25:30,0.04,0.75,0.00,25.80,29.62,32.54,13.78,46.09,1013.71,2023.10,3205.85,2870.06,3267.21,599.87,588.67,59.19,0000 0000 0000 0000 000000
2017-08-07 02:30:32,0.17,0.76,0.00,25.84,29.66,32.60,13.84,46.43,1013.71,2023.01,3203.46,2867.66,3264.70,600.42,589.17,59.24,0000 0000 0000 0000 000000
2017-08-07 02:35:33,0.07,0.76,0.00,25.91,29.71,32.60,13.74,46.51,1013.70,2022.98,3202.19,2865.93,3262.98,599.84,588.45,59.29,0000 0000 0000 0000 000000
2017-08-07 02:40:34,0.05,0.76,0.00,25.96,29.75,32.64,13.84,46.70,1013.70,2022.71,3200.56,2864.88,3261.70,600.08,588.52,59.34,0000 0000 0000 0000 000000
2017-08-07 02:45:35,0.01,0.76,0.00,26.01,29.79,32.67,13.77,46.39,1013.69,2022.06,3199.01,2863.94,3260.58,600.16,588.44,59.39,0000 0000 0000 0000 000000
2017-08-07 02:50:36,0.05,0.77,0.00,26.07,29.83,32.69,13.71,46.56,1013.69,2022.01,3197.94,2863.05,3259.35,599.88,588.10,59.44,0000 0000 0000 0000 000000
2017-08-07 02:55:38,0.07,0.77,0.00,26.12,29.88,32.78,13.70,46.51,1013.67,2021.99,3196.50,2862.21,3258.33,599.70,587.87,59.49,0000 0000 0000 0000 000000
2017-08-07 03:00:39,0.04,0.77,0.00,26.18,29.92,32.81,13.73,46.48,1013.67,2021.89,3195.12,2861.33,3257.24,599.81,587.82,59.54,0000 0000 0000 0000 000000
2017-08-07 03:05:41,0.03,0.77,0.00,26.24,29.97,32.83,13.76,46.38,1013.67,2021.44,3193.71,2860.45,3256.17,599.87,587.75,59.59,0000 0000 0000 0000 000000
2017-08-07 03:10:42,0.02,0.78,0.00,26.29,30.02,32.89,13.66,46.28,1013.58,2021.04,3192.62,2859.73,3255.15,599.72,587.44,59.64,0000 0000 0000 0000 000000
2017-08-07 03:15:43,0.05,0.78,0.00,26.35,30.07,32.90,13.64,46.23,1013.26,2021.00,3191.51,2858.97,3254.14,599.55,586.99,59.69,0000 0000 0000 0000 000000
2017-08-07 03:20:44,0.05,0.78,0.00,26.40,30.11,32.93,13.71,46.30,1013.20,2020.97,3190.35,2858.14,3253.17,599.85,587.11,59.74,0000 0000 0000 0000 000000
2017-08-07 03:25:46,0.01,0.78,0.00,26.46,30.16,33.02,13.73,46.30,1013.20,2020.67,3189.32,2857.48,3252.31,599.96,587.14,59.79,0000 0000 0000 0000 000000
2017-08-07 03:30:47,0.01,0.78,0.00,26.52,30.21,33.05,13.74,46.11,1013.19,2020.11,3188.23,2856.79,3251.42,600.19,587.23,59.84,0000 0000 0000 0000 000000
2017-08-07 03:35:49,0.04,0.78,0.00,26.57,30.27,33.10,13.73,46.08,1013.15,2020.00,3187.25,2855.97,3250.36,600.03,586.99,59.89,0000 0000 0000 0000 000000
2017-08-07 03:40:50,0.05,0.79,0.00,26.62,30.32,33.14,13.71,46.12,1012.90,2020.00,3186.28,2855.14,3249.49,599.98,586.61,59.94,0000 0000 0000 0000 000000
2017-08-07 03:45:51,0.04,0.79,0.00,26.68,30.37,33.20,13.69,46.23,1012.75,2019.92,3185.21,2854.50,3248.68,600.14,586.57,59.99,0000 0000 0000 0000 000000
2017-08-07 03:50:52,-0.03,0.79,0.00,26.74,30.42,33.25,13.73,46.31,1012.71,2019.37,3184.18,2853.92,3247.83,600.01,586.42,60.04,0000 0000 0000 0000 000000
2017-08-07 03:55:54,0.03,0.79,0.00,26.80,30.47,33.33,13.70,46.10,1012.70,2019.02,3183.26,2853.12,3246.96,600.21,586.42,60.09,0000 0000 0000 0000 000000
2017-08-07 04:00:55,0.06,0.45,0.00,26.85,30.53,33.35,12.25,40.58,1012.71,2019.45,3358.04,2954.32,3374.27,532.42,516.44,0.02,0000 0000 0000 0000 000002
2017-08-07 04:05:56,0.07,0.00,0.00,26.90,30.58,33.47,13.69,45.59,1012.55,2019.48,3553.37,3067.27,3519.16,600.04,585.97,0.03,0000 0000 0000 0000 000000
2017-08-07 04:10:58,0.06,0.00,0.00,26.95,30.64,33.50,13.72,45.70,1012.54,2019.01,3551.13,3066.13,3517.53,600.20,586.02,0.08,0000 0000 0000 0000 000000
2017-08-07 04:15:59,0.06,0.00,0.00,26.99,30.69,33.65,13.70,45.83,1012.71,2019.00,3549.58,3065.22,3516.20,600.08,585.90,0.13,0000 0000 0000 0000 000000
2017-08-07 04:21:00,0.05,0.00,0.00,26.97,30.73,33.74,13.71,45.88,1012.71,2018.74,3548.21,3064.35,3515.01,600.01,586.01,0.18,0000 0000 0000 0000 000000
2017-08-07 04:26:02,0.02,0.00,0.00,26.95,30.77,33.78,13.69,45.57,1012.71,2018.23,3547.09,3063.90,3513.98,599.77,585.70,0.23,0000 0000 0000 0000 000000
2017-08-07 04:31:03,0.03,0.00,0.00,26.93,30.81,33.79,13.72,45.60,1012.71,2018.02,3545.95,3063.08,3512.99,600.14,585.97,0.28,0000 0000 0000 0000 000000
2017-08-07 04:36:04,0.05,0.01,0.00,26.92,30.85,33.83,13.71,45.74,1012.66,2018.00,3544.78,3062.32,3512.03,599.81,585.77,0.33,0000 0000 0000 0000 000000
2017-08-07 04:41:06,0.02,0.01,0.00,26.86,30.88,33.88,13.69,45.35,1012.64,2018.00,3543.85,3061.91,3511.13,600.01,586.16,0.38,0000 0000 0000 0000 000000
2017-08-07 04:46:07,0.04,0.01,0.00,26.79,30.91,33.91,13.75,45.29,1012.52,2017.94,3542.78,3061.08,3510.27,600.07,586.20,0.43,0000 0000 0000 0000 000000
2017-08-07 04:51:08,0.04,0.01,0.00,26.67,30.93,33.95,13.81,45.10,1012.28,2017.70,3541.47,3060.35,3509.28,600.44,586.60,0.48,0000 0000 0000 0000 000000
2017-08-07 04:56:10,0.00,0.01,0.00,26.51,30.95,33.97,13.78,44.94,1012.24,2017.45,3540.61,3060.00,3508.15,600.17,586.60,0.53,0000 0000 0000 0000 000000
2017-08-07 05:01:11,0.00,0.01,0.00,26.43,30.95,33.94,13.71,44.65,1012.22,2017.32,3540.01,3059.91,3507.98,599.81,586.56,0.58,0000 0000 0000 0000 000000
2017-08-07 05:06:12,0.07,0.02,0.00,26.36,30.95,33.90,13.74,44.80,1012.22,2017.66,3539.27,3059.29,3507.35,600.15,587.07,0.64,0000 0000 0000 0000 000000
2017-08-07 05:11:13,0.00,0.02,0.00,26.30,30.94,33.80,13.70,44.67,1012.03,2017.51,3538.85,3059.00,3506.99,599.51,586.32,0.69,0000 0000 0000 0000 000000
2017-08-07 05:16:14,0.04,0.02,0.00,26.26,30.92,33.74,13.76,44.65,1011.76,2017.81,3538.08,3058.99,3506.89,600.37,586.98,0.74,0000 0000 0000 0000 000000
2017-08-07 05:21:16,0.01,0.02,0.00,26.24,30.91,33.65,13.77,44.70,1011.74,2017.97,3537.99,3058.96,3506.23,600.33,587.05,0.79,0000 0000 0000 0000 000000
2017-08-07 05:26:17,0.03,0.02,0.00,26.22,30.89,33.59,13.76,44.71,1011.73,2017.98,3537.39,3058.43,3506.01,600.20,586.94,0.84,0000 0000 0000 0000 000000
2017-08-07 05:31:18,0.00,0.02,0.00,26.23,30.87,33.55,13.68,44.60,1011.69,2017.99,3536.99,3058.03,3505.89,599.76,586.60,0.89,0000 0000 0000 0000 000000
2017-08-07 05:36:19,0.02,0.02,0.00,26.25,30.85,33.49,13.73,44.52,1011.29,2017.99,3536.35,3058.00,3505.16,600.03,586.51,0.94,0000 0000 0000 0000 000000
2017-08-07 05:41:20,0.00,0.02,0.00,26.26,30.82,33.41,13.72,44.50,1011.25,2018.00,3536.00,3057.96,3505.00,600.05,586.50,0.99,0000 0000 0000 0000 000000
2017-08-07 05:46:21,0.02,0.02,0.00,26.28,30.80,33.37,13.66,44.48,1011.21,2018.01,3535.38,3057.80,3504.86,599.74,586.11,1.04,0000 0000 0000 0000 000000
2017-08-07 05:51:23,0.05,0.03,0.00,26.30,30.78,33.33,13.73,44.56,1010.93,2018.11,3534.75,3057.09,3504.10,599.98,586.18,1.09,0000 0000 0000 0000 000000
2017-08-07 05:56:24,0.03,0.03,0.00,26.33,30.76,33.27,13.62,44.34,1010.77,2018.41,3533.91,3056.99,3503.86,599.73,585.74,1.14,0000 0000 0000 0000 000000
2017-08-07 06:01:26,0.07,0.03,0.00,26.39,30.75,33.24,13.69,44.53,1010.75,2018.64,3532.91,3056.37,3503.03,599.97,585.92,1.19,0000 0000 0000 0000 000000
2017-08-07 06:06:27,0.08,0.04,0.00,26.43,30.74,33.15,13.71,44.41,1010.68,2018.91,3531.58,3055.73,3502.10,599.95,585.72,1.24,0000 0000 0000 0000 000000
2017-08-07 06:11:28,0.06,0.04,0.00,26.47,30.72,33.09,13.70,44.35,1010.30,2018.98,3530.08,3054.88,3500.94,600.22,585.62,1.29,0000 0000 0000 0000 000000
2017-08-07 06:16:29,0.12,0.04,0.00,26.53,30.72,33.05,13.59,44.43,1010.27,2018.98,3527.47,3053.43,3499.07,600.16,585.33,1.34,0000 0000 0000 0000 000000
2017-08-07 06:21:31,0.13,0.05,0.00,26.59,30.72,33.04,13.65,44.36,1010.27,2018.99,3524.29,3051.64,3496.67,599.93,585.15,1.39,0000 0000 0000 0000 000000
2017-08-07 06:26:32,0.17,0.06,0.00,26.65,30.71,33.02,13.64,44.32,1010.24,2018.99,3520.32,3049.33,3493.62,600.18,585.25,1.44,0000 0000 0000 0000 000000
2017-08-07 06:31:33,0.15,0.07,0.00,26.72,30.72,33.01,13.67,44.37,1010.27,2018.99,3516.63,3047.18,3490.79,600.22,585.16,1.49,0000 0000 0000 0000 000000
2017-08-07 06:36:34,0.14,0.07,0.00,26.77,30.72,33.02,13.63,44.47,1010.25,2019.00,3513.17,3045.19,3488.21,600.00,584.85,1.54,0000 0000 0000 0000 000000
2017-08-07 06:41:36,0.13,0.08,0.00,26.83,30.72,33.01,13.62,44.39,1010.00,2019.00,3509.75,3043.23,3485.60,599.85,584.45,1.59,0000 0000 0000 0000 000000
2017-08-07 06:46:37,0.16,0.09,0.00,26.90,30.74,33.02,13.63,44.47,1009.81,2019.00,3505.92,3041.08,3482.73,600.12,584.46,1.64,0000 0000 0000 0000 000000
2017-08-07 06:51:38,0.16,0.10,0.00,26.95,30.75,33.03,13.69,44.52,1009.78,2019.00,3502.08,3038.87,3479.79,600.08,584.33,1.69,0000 0000 0000 0000 000000
2017-08-07 06:56:39,0.16,0.11,0.00,27.01,30.77,33.04,13.60,44.57,1009.73,2019.00,3498.11,3036.53,3476.81,599.98,584.29,1.74,0000 0000 0000 0000 000000
2017-08-07 07:01:40,0.18,0.11,0.00,27.08,30.79,33.06,13.61,44.67,1009.34,2019.00,3494.01,3034.11,3473.58,600.01,583.69,1.79,0000 0000 0000 0000 000000
2017-08-07 07:06:41,0.17,0.12,0.00,27.15,30.81,33.08,13.57,44.59,1009.30,2019.00,3489.87,3031.65,3470.37,599.92,583.49,1.84,0000 0000 0000 0000 000000
2017-08-07 07:11:43,0.17,0.13,0.00,27.22,30.83,33.10,13.55,44.70,1009.27,2019.00,3485.75,3029.25,3467.21,600.15,583.57,1.89,0000 0000 0000 0000 000000
2017-08-07 07:16:44,0.16,0.14,0.00,27.28,30.86,33.13,13.58,44.65,1009.09,2018.99,3481.80,3026.91,3464.13,599.98,583.09,1.94,0000 0000 0000 0000 000000
2017-08-07 07:21:45,0.17,0.15,0.00,27.35,30.88,33.16,13.60,44.62,1008.83,2018.93,3477.61,3024.46,3460.93,600.09,583.09,1.99,0000 0000 0000 0000 000000
2017-08-07 07:26:47,0.15,0.16,0.00,27.41,30.91,33.20,13.57,44.57,1008.81,2018.71,3473.23,3021.85,3457.55,600.28,583.05,2.04,0000 0000 0000 0000 000000
2017-08-07 07:31:48,0.17,0.17,0.00,27.48,30.94,33.22,13.54,44.68,1008.81,2018.41,3468.64,3019.19,3454.08,600.17,582.80,2.09,0000 0000 0000 0000 000000
2017-08-07 07:36:49,0.18,0.17,0.00,27.57,30.97,33.26,13.50,44.74,1008.80,2018.09,3463.87,3016.38,3450.42,599.25,581.74,2.14,0000 0000 0000 0000 000000
2017-08-07 07:41:51,0.20,0.18,0.00,27.64,31.01,33.30,13.52,44.71,1008.59,2018.00,3459.04,3013.49,3446.65,599.97,582.08,2.19,0000 0000 0000 0000 000000
2017-08-07 07:46:52,0.20,0.19,0.00,27.71,31.04,33.34,13.54,44.71,1008.62,2018.00,3454.33,3010.64,3442.88,599.87,581.95,2.24,0000 0000 0000 0000 000000
2017-08-07 07:51:53,0.21,0.20,0.00,27.79,31.08,33.39,13.59,44.77,1008.65,2018.00,3449.39,3007.82,3439.06,600.18,582.06,2.29,0000 0000 0000 0000 000000
2017-08-07 07:56:55,0.21,0.22,0.00,27.87,31.12,33.44,13.55,44.80,1008.64,2017.96,3444.33,3004.91,3435.14,600.17,581.84,2.34,0000 0000 0000 0000 000000
2017-08-07 08:01:56,0.20,0.23,0.00,27.95,31.16,33.49,13.54,44.89,1008.61,2017.88,3439.38,3001.91,3431.27,600.16,581.73,2.39,0000 0000 0000 0000 000000
2017-08-07 08:06:57,0.16,0.24,0.00,28.04,31.21,33.54,13.49,44.83,1008.43,2017.25,3434.15,2998.76,3427.16,599.75,581.08,2.44,0000 0000 0000 0000 000000
2017-08-07 08:11:58,0.21,0.25,0.00,28.11,31.26,33.59,13.50,44.97,1008.33,2017.03,3428.94,2995.62,3423.09,599.81,581.03,2.49,0000 0000 0000 0000 000000
2017-08-07 08:17:00,0.22,0.26,0.00,28.19,31.30,33.64,13.52,44.94,1008.32,2017.00,3423.68,2992.47,3418.89,599.81,580.68,2.54,0000 0000 0000 0000 000000
2017-08-07 08:22:01,0.23,0.27,0.00,28.25,31.35,33.70,13.48,44.92,1008.33,2016.96,3418.39,2989.27,3414.77,599.85,580.77,2.59,0000 0000 0000 0000 000000
2017-08-07 08:27:02,0.25,0.28,0.00,28.32,31.40,33.76,13.49,44.79,1008.34,2016.61,3412.45,2985.40,3409.76,599.74,580.53,2.64,0000 0000 0000 0000 000000
2017-08-07 08:32:04,0.45,0.30,0.00,28.37,31.45,33.83,13.57,44.98,1008.33,2016.06,3403.12,2978.00,3400.39,600.03,580.67,2.69,0000 0000 0000 0000 000000
2017-08-07 08:37:05,0.24,0.32,0.00,28.43,31.50,33.88,13.39,44.82,1008.33,2016.00,3397.35,2974.16,3395.51,599.43,579.96,2.74,0000 0000 0000 0000 000000
2017-08-07 08:42:06,0.22,0.33,0.00,28.49,31.55,33.94,13.50,44.75,1008.34,2015.99,3392.06,2970.95,3391.41,600.10,580.51,2.79,0000 0000 0000 0000 000000
2017-08-07 08:47:08,0.22,0.34,0.00,28.55,31.61,34.00,13.51,44.76,1008.35,2015.91,3386.98,2967.81,3387.43,600.29,580.62,2.84,0000 0000 0000 0000 000000
2017-08-07 08:52:09,0.17,0.35,0.00,28.62,31.66,34.05,13.47,44.71,1008.33,2015.20,3381.37,2964.41,3383.04,599.73,579.90,2.89,0000 0000 0000 0000 000000
2017-08-07 08:57:10,0.25,0.36,0.00,28.68,31.72,34.11,13.49,44.84,1008.32,2015.01,3375.58,2960.95,3378.53,600.30,580.29,2.94,0000 0000 0000 0000 000000
2017-08-07 09:02:11,0.25,0.37,0.00,28.74,31.77,34.17,13.41,44.63,1008.32,2014.96,3369.67,2957.41,3373.88,600.01,579.86,2.99,0000 0000 0000 0000 000000
2017-08-07 09:07:13,0.21,0.39,0.00,28.80,31.83,34.23,13.51,44.71,1008.32,2014.38,3363.56,2953.76,3369.11,600.09,579.91,3.05,0000 0000 0000 0000 000000
2017-08-07 09:12:14,0.28,0.40,0.00,28.85,31.89,34.28,13.41,44.73,1008.34,2014.03,3356.89,2949.82,3363.88,599.69,579.46,3.10,0000 0000 0000 0000 000000
2017-08-07 09:17:15,0.35,0.41,0.00,28.90,31.94,34.34,13.43,44.72,1008.35,2014.00,3349.13,2945.34,3357.88,599.63,579.31,3.15,0000 0000 0000 0000 000000
2017-08-07 09:22:17,0.37,0.43,0.00,28.95,32.00,34.39,13.51,44.73,1008.55,2013.91,3340.41,2940.45,3351.26,600.13,579.80,3.20,0000 0000 0000 0000 000000
2017-08-07 09:27:18,0.31,0.45,0.00,29.01,32.06,34.46,13.43,44.74,1008.78,2013.27,3331.77,2935.41,3344.56,599.87,579.43,3.25,0000 0000 0000 0000 000000
2017-08-07 09:32:19,0.42,0.47,0.00,29.06,32.11,34.51,13.49,44.86,1008.80,2013.01,3322.34,2929.92,3337.15,600.16,579.86,3.30,0000 0000 0000 0000 000000
2017-08-07 09:37:21,0.44,0.49,0.00,29.11,32.17,34.57,13.48,44.78,1008.78,2013.00,3312.42,2924.13,3329.45,600.09,579.39,3.35,0000 0000 0000 0000 000000
2017-08-07 09:42:22,0.39,0.51,0.00,29.16,32.23,34.62,13.51,44.84,1008.52,2012.78,3302.88,2918.58,3322.13,600.09,579.32,3.40,0000 0000 0000 0000 000000
2017-08-07 09:47:23,0.36,0.53,0.00,29.22,32.29,34.68,13.50,44.91,1008.40,2012.14,3293.52,2913.07,3314.84,600.20,579.22,3.45,0000 0000 0000 0000 000000
2017-08-07 09:52:24,0.45,0.55,0.00,29.27,32.34,34.73,13.48,44.83,1008.37,2012.00,3283.74,2907.26,3307.16,600.33,579.24,3.50,0000 0000 0000 0000 000000
2017-08-07 09:57:26,0.51,0.58,0.00,29.31,32.40,34.78,13.47,44.82,1008.34,2011.99,3272.63,2900.79,3298.52,600.04,578.91,3.55,0000 0000 0000 0000 000000
2017-08-07 10:02:27,0.52,0.60,0.00,29.37,32.45,34.84,13.50,44.82,1008.32,2011.70,3260.63,2893.75,3289.06,599.88,578.60,3.60,0000 0000 0000 0000 000000
2017-08-07 10:07:28,0.60,0.63,0.00,29.42,32.50,34.89,13.48,44.77,1008.32,2011.09,3246.86,2885.53,3278.13,599.91,578.57,3.65,0000 0000 0000 0000 000000
2017-08-07 10:12:30,0.71,0.66,0.00,29.47,32.56,34.94,13.44,44.80,1008.32,2011.00,3231.52,2876.79,3266.32,599.96,578.50,3.70,0000 0000 0000 0000 000000
2017-08-07 10:17:31,0.78,0.70,0.00,29.53,32.61,34.99,13.45,44.87,1008.32,2010.92,3214.68,2866.99,3253.29,599.85,578.27,3.75,0000 0000 0000 0000 000000
2017-08-07 10:22:32,0.73,0.74,0.00,29.59,32.66,35.05,13.50,44.98,1008.32,2010.36,3197.64,2856.95,3239.93,600.06,578.32,3.80,0000 0000 0000 0000 000000
2017-08-07 10:27:33,0.78,0.78,0.07,29.65,32.72,35.11,13.39,44.90,1008.32,2010.01,3180.58,2846.90,3226.57,599.97,578.17,3.85,0000 0000 0000 0000 000000
2017-08-07 10:32:34,0.81,0.82,1.00,29.70,32.77,35.16,13.40,44.91,1008.31,2009.99,3163.69,2836.89,3213.36,599.92,577.95,3.90,0000 0000 0000 0000 000000
2017-08-07 10:37:36,0.83,0.86,1.00,29.77,32.82,35.22,13.42,45.07,1008.25,2009.64,3145.45,2826.14,3199.21,599.90,577.83,3.95,0000 0000 0000 0000 000000
2017-08-07 10:42:37,0.87,0.90,1.00,29.84,32.88,35.29,13.36,45.02,1007.97,2009.04,3126.53,2814.92,3184.35,599.79,577.42,4.00,0000 0000 0000 0000 000000
2017-08-07 10:47:38,0.99,0.95,1.00,29.91,32.93,35.36,13.45,45.11,1007.88,2009.00,3106.39,2803.11,3168.63,599.86,577.33,4.05,0000 0000 0000 0000 000000
2017-08-07 10:52:39,1.00,1.00,1.00,29.99,32.98,35.42,13.44,45.18,1007.85,2008.76,3085.31,2790.56,3152.12,600.05,577.39,4.10,0000 0000 0000 0000 000000
2017-08-07 10:57:40,1.01,1.05,1.00,30.06,33.04,35.48,13.39,45.21,1007.83,2008.07,3063.82,2777.68,3135.40,599.95,576.95,4.15,0000 0000 0000 0000 000000
2017-08-07 11:02:42,1.08,1.10,1.00,30.13,33.09,35.54,13.44,45.27,1007.83,2008.00,3042.00,2764.63,3118.49,600.00,576.98,4.20,0000 0000 0000 0000 000000
2017-08-07 11:07:43,1.09,1.16,1.00,30.21,33.14,35.61,13.41,45.33,1007.83,2007.88,3019.92,2751.59,3101.30,600.08,577.00,4.25,0000 0000 0000 0000 000000
2017-08-07 11:12:44,1.06,1.21,1.00,30.28,33.20,35.67,13.40,45.43,1007.83,2007.18,2997.67,2738.25,3083.83,600.11,576.78,4.30,0000 0000 0000 0000 000000
2017-08-07 11:17:45,1.13,1.27,1.00,30.32,33.25,35.72,13.43,45.44,1007.83,2007.00,2975.43,2724.90,3066.60,600.09,576.79,4.35,0000 0000 0000 0000 000000
2017-08-07 11:22:47,1.14,1.33,1.00,30.38,33.30,35.76,13.46,45.52,1007.83,2006.96,2953.17,2711.47,3049.34,599.89,576.42,4.40,0000 0000 0000 0000 000000
2017-08-07 11:27:48,1.09,1.38,1.00,30.41,33.36,35.82,13.41,45.47,1007.83,2006.51,2931.09,2698.12,3032.10,600.11,576.51,4.45,0000 0000 0000 0000 000000
2017-08-07 11:32:50,1.11,1.44,1.00,30.43,33.41,35.86,13.34,45.48,1007.83,2006.06,2909.25,2684.95,3015.14,599.88,576.22,4.50,0000 0000 0000 0000 000000
2017-08-07 11:37:51,1.17,1.50,1.00,30.45,33.45,35.90,13.35,45.63,1007.57,2005.99,2887.22,2671.62,2998.16,599.78,576.09,4.55,0000 0000 0000 0000 000000
2017-08-07 11:42:52,1.17,1.55,1.00,30.45,33.50,35.93,13.40,45.79,1007.35,2005.74,2864.97,2657.87,2980.66,600.06,576.13,4.60,0000 0000 0000 0000 000000
2017-08-07 11:47:53,1.15,1.61,1.00,30.45,33.54,35.97,13.39,45.90,1007.34,2005.12,2842.77,2644.25,2963.36,599.99,576.06,4.65,0000 0000 0000 0000 000000
2017-08-07 11:52:55,1.20,1.67,1.00,30.44,33.59,36.00,13.40,45.84,1007.34,2005.01,2820.89,2630.85,2946.40,599.81,576.00,4.70,0000 0000 0000 0000 000000
2017-08-07 11:57:56,1.17,1.73,1.00,30.42,33.63,36.04,13.40,46.00,1007.33,2004.99,2799.50,2617.85,2929.85,599.87,576.13,4.75,0000 0000 0000 0000 000000
2017-08-07 12:02:57,1.15,1.79,1.00,30.40,33.66,36.09,13.39,46.09,1007.34,2004.82,2778.44,2604.98,2913.56,599.64,575.86,4.80,0000 0000 0000 0000 000000
2017-08-07 12:07:59,1.12,1.85,1.00,30.35,33.70,36.12,13.46,46.29,1007.34,2004.23,2757.62,2592.16,2897.40,600.06,576.53,4.85,0000 0000 0000 0000 000000
2017-08-07 12:13:00,1.14,1.90,1.00,30.31,33.74,36.14,13.44,46.38,1007.34,2004.01,2737.36,2579.54,2881.69,599.65,576.08,4.90,0000 0000 0000 0000 000000
2017-08-07 12:18:02,1.16,1.96,1.00,30.26,33.77,36.17,13.47,46.44,1007.34,2004.00,2717.18,2567.07,2866.23,600.17,576.60,4.95,0000 0000 0000 0000 000000
2017-08-07 12:23:03,1.16,2.02,1.00,30.23,33.80,36.18,13.45,46.58,1007.35,2003.97,2697.23,2554.89,2850.77,600.23,576.71,5.00,0000 0000 0000 0000 000000
2017-08-07 12:28:04,1.13,2.08,1.00,30.20,33.82,36.21,13.49,46.66,1007.34,2003.62,2677.34,2542.51,2835.29,599.81,576.47,5.05,0000 0000 0000 0000 000000
2017-08-07 12:33:06,1.14,2.14,1.00,30.17,33.85,36.23,13.49,46.72,1007.34,2003.09,2657.44,2530.09,2819.88,599.80,576.47,5.10,0000 0000 0000 0000 000000
2017-08-07 12:38:07,1.17,2.20,1.00,30.16,33.87,36.24,13.45,46.88,1007.34,2003.01,2637.87,2517.85,2804.83,600.09,576.74,5.15,0000 0000 0000 0000 000000
2017-08-07 12:43:08,1.14,2.25,1.00,30.15,33.90,36.27,13.53,47.13,1007.29,2003.00,2619.00,2506.02,2790.20,600.31,576.88,5.20,0000 0000 0000 0000 000000
2017-08-07 12:48:09,1.10,2.31,1.00,30.15,33.92,36.28,13.43,47.23,1006.96,2002.99,2600.78,2494.75,2776.11,599.89,576.43,5.25,0000 0000 0000 0000 000000
2017-08-07 12:53:11,1.09,2.37,1.00,30.13,33.94,36.31,13.42,47.19,1006.85,2002.89,2582.93,2483.68,2762.29,599.86,576.26,5.30,0000 0000 0000 0000 000000
2017-08-07 12:58:12,1.05,2.42,1.00,30.12,33.95,36.32,13.43,47.44,1006.87,2002.70,2565.55,2472.68,2748.97,599.86,576.33,5.36,0000 0000 0000 0000 000000
2017-08-07 13:03:13,1.04,2.47,1.00,30.12,33.97,36.33,13.43,47.34,1007.23,2002.17,2548.45,2461.74,2735.60,599.84,576.44,5.41,0000 0000 0000 0000 000000